Location: Caltech
(34.1382°N, 118.1253°W)
Time: 10:12:30
(UTC-07:00)

FENGYUN 3A - Visible Passes

Search period start: 03 September 2015 00:00
Search period end: 13 September 2015 00:00
Orbit: 819 x 834 km, 98.5° (Epoch: 02 September)

Date Brightness Start Highest point End Pass type
(mag) Time Alt. Az. Time Alt. Az. Time Alt. Az.
03 Sep 5.0 20:04:11 14° ESE 20:06:53 20° ENE 20:10:45 10° NNE visible
03 Sep 4.5 21:45:41 39° SW 21:46:51 44° W 21:51:57 10° NNW visible
04 Sep 5.4 19:45:59 10° E 19:48:14 13° ENE 19:50:48 10° NE visible
04 Sep 3.8 21:26:46 52° SSW 21:27:59 69° WSW 21:33:20 10° NNW visible
05 Sep 3.5 21:07:50 52° SSE 21:09:10 79° ENE 21:14:33 10° N visible
06 Sep 3.8 20:48:55 40° ESE 20:50:24 51° ENE 20:55:36 10° N visible
06 Sep 6.0 22:30:25 16° W 22:31:02 16° W 22:34:08 10° NW visible
07 Sep 4.3 20:30:00 28° ESE 20:31:40 34° ENE 20:36:30 10° N visible
07 Sep 5.4 22:11:30 25° WSW 22:11:59 25° W 22:16:16 10° NW visible
08 Sep 4.8 20:11:04 19° E 20:12:59 23° ENE 20:17:10 10° NNE visible
08 Sep 4.7 21:52:35 37° WSW 21:53:02 38° W 21:57:59 10° NNW visible
09 Sep 5.3 19:52:09 12° E 19:54:19 15° ENE 19:57:28 10° NNE visible
09 Sep 4.0 21:33:39 56° SW 21:34:08 59° W 21:39:26 10° NNW visible
10 Sep 3.5 21:14:44 73° S 21:15:18 89° WSW 21:20:43 10° NNW visible
11 Sep 3.6 20:55:49 55° ESE 20:56:31 60° ENE 21:01:49 10° N visible
11 Sep 6.2 22:37:20 14° W 22:37:20 14° W 22:39:44 10° WNW visible
12 Sep 4.1 20:36:55 37° E 20:37:47 39° ENE 20:42:46 10° N visible
12 Sep 5.7 22:18:25 21° W 22:18:25 21° W 22:22:09 10° NW visible
